DLH2EL EDDH-EDDF

Flight info

Callsign DLH2EL
Flight time N/A
Altitude 30000
Route AMLUH2G/33 AMLUH M852 DENIX DCT RIMET/N0455F310 T157 KOKEB/N0413F230 T157 KERAX KERAX5A
Aircraft A320/M-SDE3FGHIRWY/LB1

Departure

Time 2026-05-05 12:53
Airport Hamburg Helmut Schmidt Airport (EDDH)

Arrival

Time N/A
Airport Frankfurt Main Airport (EDDF)
Time Latitude Longitude Altitude Speed Heading
2026-05-05 12:34 53.63196 10.00379 50 ft 0 kts 87°
2026-05-05 12:42 53.63195 10.00347 50 ft 2 kts 87°
2026-05-05 12:42 53.63194 10.00322 50 ft 2 kts 87°
2026-05-05 12:42 53.63194 10.00297 50 ft 2 kts 91°
2026-05-05 12:42 53.63195 10.00275 50 ft 0 kts 112°
2026-05-05 12:43 53.63194 10.00280 50 ft 0 kts 112°
2026-05-05 12:43 53.63199 10.00263 46 ft 2 kts 134°
2026-05-05 12:43 53.63210 10.00248 49 ft 2 kts 166°
2026-05-05 12:43 53.63220 10.00246 48 ft 1 kts 185°
2026-05-05 12:44 53.63219 10.00246 47 ft 0 kts 184°
2026-05-05 12:45 53.63217 10.00245 47 ft 1 kts 189°
2026-05-05 12:45 53.63196 10.00212 47 ft 9 kts 219°
2026-05-05 12:45 53.63118 10.00184 50 ft 13 kts 184°
2026-05-05 12:46 53.63029 10.00134 50 ft 15 kts 216°
2026-05-05 12:46 53.62967 10.00066 50 ft 4 kts 208°
2026-05-05 12:46 53.62933 10.00021 50 ft 8 kts 229°
2026-05-05 12:46 53.62902 9.99928 50 ft 7 kts 244°
2026-05-05 12:47 53.62896 9.99909 50 ft 0 kts 243°
2026-05-05 12:47 53.62885 9.99871 50 ft 10 kts 243°
2026-05-05 12:48 53.62863 9.99752 49 ft 5 kts 336°
2026-05-05 12:48 53.62892 9.99729 49 ft 6 kts 331°
2026-05-05 12:48 53.62899 9.99723 49 ft 0 kts 330°
2026-05-05 12:51 53.62900 9.99722 49 ft 1 kts 330°
2026-05-05 12:51 53.62909 9.99714 49 ft 0 kts 331°
2026-05-05 12:51 53.62912 9.99711 49 ft 2 kts 331°
2026-05-05 12:52 53.62915 9.99708 49 ft 3 kts 331°
2026-05-05 12:52 53.63177 9.99485 49 ft 79 kts 335°
2026-05-05 12:52 53.63852 9.98903 48 ft 136 kts 331°
2026-05-05 12:52 53.64813 9.98109 278 ft 159 kts 337°
2026-05-05 12:53 53.65797 9.97329 874 ft 154 kts 340°
2026-05-05 12:53 53.66764 9.96584 1508 ft 153 kts 337°
2026-05-05 12:53 53.67734 9.95727 2011 ft 165 kts 335°
2026-05-05 12:53 53.68814 9.94873 2571 ft 183 kts 347°
2026-05-05 12:54 53.71583 9.94697 3755 ft 215 kts
2026-05-05 12:54 53.73060 9.95259 4484 ft 224 kts 30°
2026-05-05 12:54 53.74170 9.97143 5251 ft 233 kts 63°
2026-05-05 12:55 53.74584 9.99795 6098 ft 236 kts 86°
2026-05-05 12:55 53.74519 10.02592 6897 ft 242 kts 105°
2026-05-05 12:55 53.73860 10.05185 7746 ft 241 kts 126°
2026-05-05 12:55 53.72910 10.07609 8397 ft 257 kts 124°
2026-05-05 12:56 53.71936 10.10298 8854 ft 280 kts 122°
2026-05-05 12:56 53.70929 10.13240 9422 ft 297 kts 122°
2026-05-05 12:56 53.69912 10.16284 9536 ft 296 kts 121°
2026-05-05 12:56 53.68790 10.19161 9641 ft 293 kts 137°
2026-05-05 12:57 53.67131 10.21081 9762 ft 289 kts 162°
2026-05-05 12:57 53.65206 10.22040 9871 ft 289 kts 167°
2026-05-05 12:57 53.63260 10.22923 9990 ft 292 kts 168°
2026-05-05 12:57 53.61241 10.23834 10135 ft 312 kts 167°
2026-05-05 12:58 53.59062 10.24818 10467 ft 334 kts 167°
2026-05-05 12:58 53.56822 10.25842 11197 ft 339 kts 167°
2026-05-05 12:58 53.54505 10.26906 11993 ft 344 kts 167°
2026-05-05 12:58 53.52181 10.27973 12776 ft 349 kts 167°
2026-05-05 12:59 53.49821 10.29055 13528 ft 355 kts 167°
2026-05-05 12:59 53.47419 10.30154 14245 ft 359 kts 167°
2026-05-05 12:59 53.44998 10.31262 14947 ft 363 kts 167°
2026-05-05 13:00 53.40093 10.33497 16362 ft 372 kts 168°
2026-05-05 13:00 53.37552 10.34645 17098 ft 375 kts 168°
2026-05-05 13:01 53.29880 10.38095 19002 ft 387 kts 169°
2026-05-05 13:01 53.27273 10.39262 19635 ft 388 kts 168°
2026-05-05 13:01 53.24658 10.40432 20257 ft 391 kts 168°
2026-05-05 13:01 53.22019 10.41613 20864 ft 394 kts 168°
2026-05-05 13:02 53.19368 10.42798 21460 ft 397 kts 168°
2026-05-05 13:02 53.16688 10.43993 21609 ft 398 kts 168°
2026-05-05 13:02 53.13989 10.44956 21718 ft 395 kts 175°
2026-05-05 13:02 53.11258 10.45336 21833 ft 393 kts 182°
2026-05-05 13:03 53.08537 10.45146 21915 ft 391 kts 188°
2026-05-05 13:03 53.05826 10.44748 21917 ft 391 kts 188°
2026-05-05 13:03 53.03119 10.44361 21913 ft 391 kts 188°
2026-05-05 13:03 53.00411 10.43982 21912 ft 391 kts 188°
2026-05-05 13:04 52.97714 10.43610 21919 ft 391 kts 188°
2026-05-05 13:04 52.95005 10.43239 21919 ft 390 kts 188°
2026-05-05 13:04 52.92317 10.42873 21915 ft 391 kts 188°
2026-05-05 13:04 52.89587 10.42500 21916 ft 390 kts 188°
2026-05-05 13:05 52.86880 10.42132 21910 ft 391 kts 188°
2026-05-05 13:05 52.84172 10.41763 21916 ft 391 kts 188°
2026-05-05 13:05 52.81464 10.41395 21916 ft 391 kts 188°
2026-05-05 13:05 52.78755 10.41027 21901 ft 391 kts 188°
2026-05-05 13:06 52.76043 10.40658 21908 ft 391 kts 188°
2026-05-05 13:06 52.73329 10.40291 21903 ft 391 kts 188°
2026-05-05 13:06 52.70619 10.39925 21918 ft 391 kts 188°
2026-05-05 13:06 52.67905 10.39559 21906 ft 391 kts 188°
2026-05-05 13:07 52.65196 10.39194 21901 ft 391 kts 188°
2026-05-05 13:07 52.62481 10.38828 21905 ft 391 kts 188°
2026-05-05 13:07 52.59770 10.38463 21903 ft 391 kts 188°
2026-05-05 13:07 52.57053 10.38098 21896 ft 391 kts 188°
2026-05-05 13:08 52.54380 10.37738 21881 ft 390 kts 187°
2026-05-05 13:08 52.51676 10.37375 21892 ft 389 kts 187°
2026-05-05 13:08 52.48975 10.37013 21887 ft 390 kts 187°
2026-05-05 13:08 52.46273 10.36653 21887 ft 389 kts 187°
2026-05-05 13:09 52.43572 10.36292 21885 ft 390 kts 187°
2026-05-05 13:09 52.40872 10.35932 21886 ft 390 kts 187°
2026-05-05 13:09 52.38168 10.35572 21888 ft 390 kts 187°
2026-05-05 13:09 52.35461 10.35212 21888 ft 390 kts 187°
2026-05-05 13:10 52.32759 10.34853 21883 ft 389 kts 187°
2026-05-05 13:10 52.30060 10.34494 21876 ft 388 kts 187°
2026-05-05 13:10 52.27379 10.34138 21884 ft 386 kts 187°
2026-05-05 13:10 52.24697 10.33783 21885 ft 387 kts 187°
2026-05-05 13:11 52.22013 10.33428 21886 ft 387 kts 187°
2026-05-05 13:11 52.19329 10.33074 21882 ft 387 kts 187°
2026-05-05 13:11 52.16643 10.32720 21883 ft 387 kts 187°
2026-05-05 13:11 52.13961 10.32366 21883 ft 387 kts 187°
2026-05-05 13:12 52.11277 10.32013 21880 ft 387 kts 187°
2026-05-05 13:12 51.93273 10.28560 21931 ft 383 kts 187°
2026-05-05 13:12 51.90645 10.28421 21874 ft 384 kts 181°
2026-05-05 13:12 51.87924 10.28460 21870 ft 386 kts 182°
2026-05-05 13:13 51.69286 10.26863 21988 ft 378 kts 186°
2026-05-05 13:13 51.66710 10.26506 22226 ft 381 kts 187°
2026-05-05 13:13 51.64039 10.26053 21937 ft 388 kts 187°
2026-05-05 13:13 51.61379 10.25615 21855 ft 381 kts 187°
2026-05-05 13:14 51.58738 10.25218 21852 ft 383 kts 187°
2026-05-05 13:14 51.56073 10.24847 21794 ft 384 kts 186°
2026-05-05 13:14 51.53414 10.24496 21589 ft 383 kts 186°
2026-05-05 13:14 51.50760 10.24156 21333 ft 381 kts 186°
2026-05-05 13:15 51.48129 10.23821 21077 ft 378 kts 186°
2026-05-05 13:15 51.45507 10.23488 20820 ft 377 kts 186°
2026-05-05 13:15 51.42892 10.23154 20564 ft 376 kts 186°
2026-05-05 13:15 51.40287 10.22822 20318 ft 375 kts 186°
2026-05-05 13:16 51.38568 10.22603 20150 ft 374 kts 186°
2026-05-05 13:16 51.35979 10.22273 19897 ft 373 kts 186°
2026-05-05 13:16 51.10214 10.20298 19858 ft 366 kts 189°
2026-05-05 13:16 50.96079 10.22111 19885 ft 353 kts 190°
2026-05-05 13:17 50.93703 10.21400 20215 ft 350 kts 199°
2026-05-05 13:17 50.91436 10.19809 20430 ft 364 kts 202°
2026-05-05 13:17 50.88940 10.18862 20356 ft 374 kts 185°
2026-05-05 13:17 50.86340 10.19086 20071 ft 375 kts 172°
2026-05-05 13:18 50.83745 10.19649 19615 ft 386 kts 180°
2026-05-05 13:18 50.80995 10.19138 19211 ft 414 kts 195°
2026-05-05 13:18 50.78260 10.17471 18807 ft 426 kts 208°
2026-05-05 13:18 50.75826 10.14853 18388 ft 418 kts 221°
2026-05-05 13:19 50.73939 10.11537 17978 ft 397 kts 235°
2026-05-05 13:19 50.72740 10.07730 17525 ft 381 kts 251°
2026-05-05 13:19 50.72258 10.03710 17072 ft 366 kts 261°
2026-05-05 13:19 50.71927 9.99821 16631 ft 350 kts 257°
2026-05-05 13:20 50.71372 9.96188 16345 ft 331 kts 250°
2026-05-05 13:20 50.70603 9.92792 16060 ft 330 kts 245°
2026-05-05 13:20 50.69670 9.89462 15754 ft 331 kts 243°
2026-05-05 13:20 50.68666 9.86221 15456 ft 328 kts 241°
2026-05-05 13:21 50.67632 9.83011 15161 ft 328 kts 241°
2026-05-05 13:21 50.66593 9.79819 14873 ft 327 kts 241°
2026-05-05 13:21 50.65556 9.76634 14584 ft 326 kts 241°
2026-05-05 13:21 50.64532 9.73481 14295 ft 319 kts 241°
2026-05-05 13:22 50.63533 9.70434 13999 ft 308 kts 238°
2026-05-05 13:22 50.62212 9.67793 13721 ft 309 kts 225°
2026-05-05 13:22 50.60711 9.65365 13412 ft 309 kts 224°
2026-05-05 13:22 50.59213 9.62969 13030 ft 302 kts 224°
2026-05-05 13:23 50.57758 9.60638 12559 ft 295 kts 224°
2026-05-05 13:23 50.56336 9.58353 12095 ft 288 kts 225°
2026-05-05 13:23 50.54953 9.56122 11633 ft 281 kts 225°
2026-05-05 13:23 50.53606 9.53945 11184 ft 275 kts 225°
2026-05-05 13:24 50.52284 9.51813 10739 ft 270 kts 225°
2026-05-05 13:24 50.50989 9.49724 10299 ft 264 kts 225°
2026-05-05 13:24 50.49731 9.47695 9872 ft 260 kts 225°
2026-05-05 13:24 50.48478 9.45674 9408 ft 256 kts 224°
2026-05-05 13:25 50.47246 9.43689 8935 ft 252 kts 224°
2026-05-05 13:25 50.46030 9.41736 8469 ft 249 kts 224°
2026-05-05 13:25 50.44828 9.39805 8013 ft 246 kts 224°
2026-05-05 13:25 50.43638 9.37894 7563 ft 243 kts 224°
2026-05-05 13:26 50.42464 9.36010 7114 ft 240 kts 224°
2026-05-05 13:26 50.41313 9.34180 5427 ft 0 kts 224°
2026-05-05 13:26 50.39182 9.30897 4238 ft 226 kts 224°
2026-05-05 13:26 50.38123 9.29209 4131 ft 209 kts 226°
2026-05-05 13:27 50.33968 9.22443 4302 ft 185 kts 226°
2026-05-05 13:27 50.30113 9.15688 4355 ft 166 kts 226°
2026-05-05 13:27 50.29341 9.14376 4510 ft 164 kts 226°
2026-05-05 13:27 50.28591 9.13116 4804 ft 155 kts 225°
2026-05-05 13:28 50.27853 9.11888 5088 ft 156 kts 225°
2026-05-05 13:28 50.27105 9.10661 5383 ft 157 kts 224°
2026-05-05 13:28 50.26354 9.09429 5664 ft 157 kts 225°
2026-05-05 13:28 50.25634 9.08202 5915 ft 148 kts 226°
2026-05-05 13:29 50.24907 9.07046 5653 ft 155 kts 217°
2026-05-05 13:29 50.23891 9.06430 5247 ft 154 kts 191°
2026-05-05 13:29 50.22890 9.06782 4740 ft 158 kts 145°
2026-05-05 13:29 50.22111 9.08005 4346 ft 154 kts 131°
2026-05-05 13:30 50.21542 9.09362 4112 ft 146 kts 122°
2026-05-05 13:30 50.20820 9.10464 3687 ft 151 kts 156°
2026-05-05 13:30 50.19759 9.10757 3164 ft 156 kts 181°
2026-05-05 13:30 50.18732 9.10483 2885 ft 146 kts 201°
2026-05-05 13:31 50.18038 9.09456 2595 ft 139 kts 242°
2026-05-05 13:31 50.17625 9.08061 2265 ft 138 kts 251°
2026-05-05 13:31 50.17290 9.06658 1840 ft 148 kts 249°
2026-05-05 13:31 50.16884 9.05119 2007 ft 158 kts 246°
2026-05-05 13:32 50.16456 9.03517 2509 ft 153 kts 246°